Погода Томпо

Погода Томпо : погода сейчас, прогноз погоды и архив. Всё, что Вы хотите узнать о погоде Томпо!

Хотите узнать прогноз погоды Томпо? Тогда Вам сюда: Погода Томпо

Поиск расширенной информации на нашем сайте:

Другие новости

Новости СМИ2

Главная страница сайта

Новости сайта

03.07.2017

Напоминаем, что на нашем специализированном сайте Метеоцентр.Азия вы можете получить высокодетализированные автоматические прогнозы погоды по пунктам России, СНГ и мира в авиационном формате (включающие направление и скорость ветра, видимость, явления погоды, количество и форму облачности, нижнюю и верхнюю границу облачности).


Погода Томпо - сегодня

Время (UTC), дата Ветер
(°,м/с) 
Видим.   Явления Облачность Т
(°С)
Тd
(°С)
f(%) Тe
(°С)
Pmin
(гПа)
dP
(гПа)
Po
(мм)
O2
(г/м3)
Тmin Tmax R s Состояние
почвы
21 14.06.18 тихо ()   20000 м    10/10 1000 м 
[Sc]
+8.9 +7 88 +9  1015.6  -0.5  726  282  +6.9        сухая 
00 15.06.18 170 (Ю) 20000 м    9/9 1000 м 
[Sc]
+12.5 +7.8 73 +13  1014.3  -0.6  725  278           
03 15.06.18 190 (Ю) 20000 м    6/6 600 м верхняя 
[Cu Sc|Cc]
+15.5 +8 61 +16  1012.5  -1.2  724  275           
06 15.06.18 180 (Ю) 3{12}  20000 м    9/5 600 м кучево-дожд., средняя, верхняя 
[Cb cap|Ac trans|Ci fib]
+16.4 +7.7 56 +17  1011  -1.2  723  274           
12 15.06.18 160 (Ю) 20000 м  {ливн. осадки}  10/10 600 м кучево-дожд. 
[Cb cap]
+12.2 +7.7 74 +13  1010.6  -1.4  722  277           
15 15.06.18 тихо ()   10 км  слаб. дождь  10/10 300 м 
[Frnb]
+9.8 +9 95 +10  1010.6  -0.3  722  279           
18 15.06.18 тихо ()   20000 м  {дождь}  10/10 1000 м 
[Sc]
+9.2 +8.4 95 +9  1009.3  -1.4  721  280           
21 15.06.18 тихо ()   20000 м    10/10 1000 м 
[Sc]
+9 +7.7 92 +9  1008.5  -0.7  721  280  +8.9      влажная 
00 16.06.18 160 (Ю) 20000 м    10/10 1000 м 
[Sc]
+11.8 +9.6 86 +14  1007.1  -0.9  720  276           
03 16.06.18 150 (ЮВ) 20000 м    10/10 300 м кучево-дожд. 
[Cb cap]
+12.8 +9.3 79 +15  1005.1  -1.7  719  275           
06 16.06.18 180 (Ю) 20000 м  {ливн. осадки}  9/9 600 м кучево-дожд. 
[Cb cap]
+13.8 +9.7 76 +16  1002.8  -2  717  273           
12 16.06.18 тихо ()   20000 м  в посл. час ливневой дождь  10/10 600 м кучево-дожд. 
[Cb cap]
+9.7 +8.7 93 +10  1002.9  0.4  717  277           
15 16.06.18 тихо ()   20000 м    9/9 600 м кучево-дожд. 
[Cb cap]
+8 +6.7 91 +8  1003.4  0.1  717  279           
18 16.06.18 тихо ()   20000 м    8/8 600 м кучево-дожд. 
[Cb cap]
+7.6 +6.1 90 +8  1003.4  717  280           
03 17.06.18 150 (ЮВ) 20000 м    6/6 600 м кучево-дожд. 
[Cb cap]
+18.8 +8.9 53 +21  999.6  -0.9  716  268           
12 17.06.18 тихо ()   20000 м  в посл. час ливневой дождь  9/5 600 м кучево-дожд., верхняя 
[Cb cap|Ci fib]
+12.2 +11.1 93 +16  1002.5  717  274           
15 17.06.18 тихо ()   20000 м    10/6 1000 м средняя 
[Sc|Ac und]
+9.6 +8.8 95 +10  1003.4  0.4  717  278           
18 17.06.18 тихо ()   20000 м    10/10 1000 м 
[Sc]
+8.9 +7.2 89 +9  1003.9  0.3  717  279           
21 17.06.18 тихо ()   20000 м    10/5 1000 м средняя 
[Sc|Ac und]
+8.8 +7.3 90 +9  1004.9  0.9  718  279  +7.6    11    влажная 
00 18.06.18 тихо ()   20000 м    10/10 1000 м 
[Sc]
+11.6 +10.2 91 +14  1005  0.6  719  276           
03 18.06.18 тихо ()   20000 м  {ливн. осадки}  9/3 1000 м средняя, верхняя 
[Sc|Ac trans|Ci fib]
+16.1 +12 77 +21  1004.4  0.3  719  271           
06 18.06.18 150 (ЮВ) 20000 м  {ливн. осадки}  9/4 600 м кучево-дожд., средняя, верхняя 
[Cb cap|Ac trans|Ci fib]
+19.8 +9.7 52 +23  1003.5  -0.5  718  268           
12 18.06.18 160 (Ю) 20000 м  {ливн. осадки}  4/3 1000 м средняя, верхняя 
[Sc|Ac trans|Ci fib]
+18.7 +7.8 49 +20  1005.5  1.3  720  270           
15 18.06.18 тихо ()   20000 м    4/3 1000 м верхняя 
[Sc|Ci fib]
+9.2 +7.6 90 +9  1008.8  1.5  721  280           
18 18.06.18 тихо ()   20000 м    4/3 1000 м верхняя 
[Sc|Ci fib]
+8.4 +7.1 92 +8  1010.1  1.3  722  281           
Время (UTC), дата Ветер
(°,м/с) 
Видим.   Явления Облачность Т
(°С)
Тd
(°С)
f(%) Тe
(°С)
Pmin
(гПа)
dP
(гПа)
Po
(мм)
O2
(г/м3)
Тmin Tmax R s Состояние
почвы

Для получения пояснительной информации подведите курсор к названию столбца.

ПОГОДА Томпо - архив

Всё, что Вы хотите узнать о погоде Томпо - удобно и подробно!

Выберите нужную дату (начиная с 1 января 2015* года) и нажмите кнопку "Найти".
Будут отображены архивные сводки погоды по пункту Томпо, начиная с указанной даты.


Отображать данные в формате CSV (для использования в таблицах Excel)


Внимание! Наш архив погоды предназначен исключительно для личного некоммерческого использования в познавательных целях. Если Вам необходимы официальные справки о состоянии погоды (для производственных, юридических, коммерческих и т.п. целей), обращайтесь в органы Росгидромета.

*Примечание: данная дата относится к архиву по метеостанциям СССР (Россия, СНГ, Балтия).
Архив по метеостанциям Зарубежной Европы и Азии (кроме Китая) хранится 10 дней, по другим регионам земного шара (Китай, Африка, Америка, Австралия, Океания) - 1 день.

Томпо - район местоположения метеостанции


Название, широта, долгота, высота метеостанции:
Томпо 63.9°ш. 135.9°д. 402 м над ур. моря [Российская Федерация]

Дополнительная информация

В oтличие oт бoльшинства пoгoдных сайтoв мы публикуем пoдрoбную метеoинфoрмацию в детальнoм прoфессиoнальнoм фoрмате.

Характеристики температуры и влажнoсти вoздуха измеряются на высoте 2 м в тени вдали oт зданий и деревьев.
Скoрoсть ветра измеряется на высoте 10 м (на урoвне рoста челoвека скoрoсть ветра ниже в 1.5-2 раза). Если метеoстанция нахoдится в гoрoде или в лесу, тo скoрoсть ветра занижена на 2-4 м/с пo сравнению с oткрытым местoм. Скoрoсть ветра над акватoриями крупных рек и oзёр, а также на вершинах хoлмoв на 2-5 м/с выше, чем в oбычных услoвиях.
Атмoсфернoе давление в разных тoчках местнoсти мoжет значительнo oтличаться oт давления на метеoстанции, в зависимoсти oт услoвий рельефа (при пoдъёме на 10 м давление пoнижается примернo на 1 мм рт.ст.).